09:44
Airports
History
Links
Donate
Help keep this website running!
PayPal
Bitcoin
This page is community maintained. The information is intended for PC simulator navigation or reference.
Always use approved charts for navigation.
EDTO
Offenburg Baden
Offenburg Baden (EDTO)
Offenburg, Baden-Wurttemberg, Germany (77656)
(U)
Lat/Lng:48° 26' 52.15" N / 7° 55' 25.24" E
48.447819 / 7.923678
Elevation:509'ft / 155mMSL
ID / ICAO:EDTO
Runways:1
Longest:02-20
Asphalt 917m / 3,010ft
Nearby Weather09:30 GMT 2017-10-23
Nearby weather at LFST, Entzheim located 14.9 nautical miles from EDTO
Altimeter: 30.18
Visibility: 6.2 statute miles
Wind: 7 knots (from 210°)
Temp: 12°c / 54°f
Humidity: 81.9%

METAR: LFST 230930Z AUTO 21007KT 180V240 CAVOK 12/09 Q1022 NOSIG

(Powered by phpweather)
Nearby VORs <50NM
Nearby NDBs
Runway 02 / 20
Dimensions:917.3 x 20.1m 3010' x 66'ft
Surface:Asphalt
Runway 02 [A]Runway 20 [B]
Heading:020°TH 200°TH
Lat:
Lng:
48° 26' 38.29"N
7° 55' 17.64"E
48° 27' 6"N
7° 55' 32.84"E
User Notes and Comments
48° 26' 52.15" N / 7° 55' 25.24" E
Distance To
Airport ID:
Nearby Airports
(C) LAHR 7.0 NM
EDTL SW 219°
(C) Entzheim 14.9 NM
LFST ( WX ) WNW 294°
(C) Karlsruhe Baden Baden 24.0 NM
EDSB NNE 17°
(C) Haguenau 24.4 NM
LFSH NNW 348°
(U) Winzeln Schramberg 25.9 NM
EDTW ESE 116°
(C) FREIBURG 29.7 NM
EDTF S 188°
(C) Houssen 34.9 NM
LFGA SW 228°
VFR Chart
Flight Planning at SkyVector.com